Location: Nitra
(0.0000°N, 18.0833°E)
Time: 16:43:39
(UTC+02:00)

A-11 Canister half - Visible Passes

Search period start: 30 March 2023 00:00
Search period end: 09 April 2023 00:00
Orbit: 1512 x 1687 km, 47.2° (Epoch: 29 March)

Date Brightness Start Highest point End Pass type
(mag) Time Alt. Az. Time Alt. Az. Time Alt. Az.
30 Mar 10.8 04:05:01 10° N 04:12:44 24° NE 04:20:18 10° E visible
30 Mar 9.1 06:07:45 10° NW 06:17:48 73° SW 06:27:32 10° SSE visible
30 Mar 10.7 18:59:53 10° WSW 19:08:04 34° NW 19:16:32 10° NNE visible
31 Mar 10.8 03:42:27 10° N 03:49:43 22° NE 03:56:54 10° E visible
31 Mar 9.1 05:44:43 10° NW 05:54:50 79° SW 06:04:39 10° SE visible
01 Apr 10.9 03:22:36 16° NNE 03:26:40 20° NE 03:33:28 10° E visible
01 Apr 9.0 05:21:42 10° NW 05:31:52 85° SW 05:41:44 10° SE visible
02 Apr 10.9 03:02:44 18° NE 03:03:38 18° NE 03:09:56 10° E visible
02 Apr 9.0 05:01:05 20° NW 05:08:54 89° NE 05:18:48 10° SE visible
03 Apr 11.1 02:42:47 15° ENE 02:42:47 15° ENE 02:46:20 10° E visible
03 Apr 9.1 04:41:07 37° NNW 04:45:56 83° NE 04:55:52 10° SE visible
04 Apr 9.1 04:21:01 62° NNW 04:22:58 77° NE 04:32:53 10° SE visible
04 Apr 10.1 06:20:37 10° W 06:27:57 23° SW 06:35:10 10° S visible
05 Apr 9.2 04:00:46 68° E 04:00:46 68° E 04:09:54 10° SE visible
05 Apr 10.0 05:59:05 15° W 06:04:56 25° SW 06:12:34 10° S visible
06 Apr 9.8 03:40:23 45° ESE 03:40:23 45° ESE 03:46:53 10° SE visible
06 Apr 9.9 05:38:41 23° WSW 05:41:56 28° SW 05:49:56 10° S visible
07 Apr 10.4 03:19:51 28° ESE 03:19:51 28° ESE 03:23:51 10° SE visible
07 Apr 9.7 05:18:08 30° WSW 05:18:56 30° SW 05:27:16 10° S visible
08 Apr 11.0 02:59:10 16° ESE 02:59:10 16° ESE 03:00:47 10° SE visible
08 Apr 9.8 04:57:26 32° SSW 04:57:26 32° SSW 05:04:34 10° SSE visible
